NORTHEAST SUFFOLK  -  Winter Weather Advisory Winter Weather Advisory        NORTHERN NASSAU  -  Winter Weather Advisory Winter Weather Advisory        NORTHERN QUEENS  -  Winter Weather Advisory Winter Weather Advisory        NORTHWEST SUFFOLK  -  Winter Weather Advisory Winter Weather Advisory        SOUTHEAST SUFFOLK  -  Winter Weather Advisory Winter Weather Advisory        SOUTHERN NASSAU  -  Winter Weather Advisory Winter Weather Advisory        SOUTHERN QUEENS  -  Winter Weather Advisory Winter Weather Advisory        SOUTHWEST SUFFOLK  -  Winter Weather Advisory Winter Weather Advisory      

Active alerts

Northern Queens
  Details for Northern Queens Winter Weather Advisory
Southern Queens
  Details for Southern Queens Winter Weather Advisory
Northern Nassau
  Details for Northern Nassau Winter Weather Advisory
Southern Nassau
  Details for Southern Nassau Winter Weather Advisory
Northwest Suffolk
  Details for Northwest Suffolk Winter Weather Advisory
Southwest Suffolk
  Details for Southwest Suffolk Winter Weather Advisory
Northeast Suffolk
  Details for Northeast Suffolk Winter Weather Advisory
Southeast Suffolk
  Details for Southeast Suffolk Winter Weather Advisory


WXM80 ListenWXM80 Stop

You find our weather info also at:

UK Metoffice

WeatherCloud

Weather Underground

Northeastern Weather Network

AWEKAS

Citizen Weather Observer Program (CWOP)

HAMweather, WeatherForYou, PWS Weather


Weather Underground History page Text

Daily Summary for October 25, 2017 Units:  Metric    English   Both
« Previous Day
Next Day »
Daily Weekly Monthly Yearly Custom
  High: Low: Average:
Temperature: 20.1 °C 14.4 °C 16.8 °C
Dew Point: 19.7 °C 13.1 °C 15.5 °C
Humidity: 98 % 78 % 92 %
Wind Speed: 8.9 km/h 0 km/h 1 km/h
Wind Gust: 18.5 km/h - -
Wind:- - WSW
Pressure: 1007.7 hPa 1003.6 hPa -
Precipitation: 3.56 mm    
Historical Graphs
 
 
Tabular Data for October 25, 2017
Time Temperature Dew Point Pressure Wind Wind Speed Wind Gust Humidity Rainfall Rate (Hourly)
00:01 20.1 °C 19.7 °C 1007.7 hPa SE 1.1 km/h 3.7 km/h 98 % 2.03 mm
00:06 20.1 °C 19.7 °C 1007.3 hPa SSW 4.8 km/h 6.4 km/h 98 % 1.52 mm
00:11 20.1 °C 19.7 °C 1007.3 hPa Calm   1.9 km/h 98 % 1.27 mm
00:17 20.1 °C 19.7 °C 1007.3 hPa SW 0.8 km/h 3.2 km/h 98 % 1.02 mm
00:22 20 °C 19.7 °C 1006.7 hPa SE 2.4 km/h 9.3 km/h 98 % 1.02 mm
00:27 20 °C 19.7 °C 1007 hPa Calm   3.7 km/h 98 % 1.02 mm
00:32 20 °C 19.7 °C 1006.7 hPa Calm     98 % 1.27 mm
00:37 20 °C 19.7 °C 1007 hPa SW 3.2 km/h 5.6 km/h 98 % 1.27 mm
00:42 19.9 °C 19.6 °C 1007 hPa Calm     98 % 1.52 mm
00:47 19.9 °C 19.6 °C 1007 hPa Calm     98 % 1.52 mm
00:52 19.9 °C 19.6 °C 1006.7 hPa SSW 1.6 km/h 3.7 km/h 98 % 1.27 mm
00:57 19.9 °C 19.6 °C 1006.7 hPa SSW 0.3 km/h 1.9 km/h 98 % 1.52 mm
01:02 19.9 °C 19.6 °C 1006.7 hPa Calm     98 % 1.27 mm
01:07 19.9 °C 19.6 °C 1006.7 hPa Calm     98 % 1.27 mm
01:12 19.9 °C 19.6 °C 1006.7 hPa Calm     98 % 1.27 mm
01:17 19.9 °C 19.6 °C 1006.7 hPa Calm     98 % 1.02 mm
01:22 19.9 °C 19.6 °C 1006.7 hPa Calm     98 % 1.02 mm
01:28 19.9 °C 19.6 °C 1006.7 hPa SE 1.3 km/h 5.6 km/h 98 % 1.27 mm
01:33 19.9 °C 19.6 °C 1007 hPa SE 0.2 km/h 7.4 km/h 98 % 1.02 mm
01:38 19.9 °C 19.6 °C 1006.7 hPa SE 1.8 km/h 5.6 km/h 98 % 1.02 mm
01:43 19.8 °C 19.5 °C 1006.7 hPa SSE 0.8 km/h 5.6 km/h 98 % 0.76 mm
01:48 19.8 °C 19.4 °C 1007 hPa SSE 0.6 km/h 3.7 km/h 98 % 1.02 mm
01:53 19.8 °C 19.4 °C 1007 hPa SSW 1.6 km/h 5.6 km/h 98 % 1.02 mm
01:58 19.7 °C 19.4 °C 1007.3 hPa SE 2.1 km/h 7.4 km/h 98 % 0.76 mm
02:03 19.6 °C 19.3 °C 1007.3 hPa SE 1.3 km/h 7.4 km/h 98 % 1.02 mm
02:08 19.5 °C 19 °C 1007.7 hPa Calm   1.9 km/h 97 % 1.02 mm
02:13 19.4 °C 18.9 °C 1007.3 hPa SSW 1.8 km/h 6.4 km/h 97 % 0.76 mm
02:18 19.3 °C 18.8 °C 1007.3 hPa South 1.3 km/h 5.6 km/h 97 % 0.76 mm
02:23 19.3 °C 19 °C 1007.3 hPa SW 2.9 km/h 8 km/h 98 % 1.02 mm
02:28 19.3 °C 18.9 °C 1007.3 hPa SSW 2.3 km/h 5.6 km/h 98 % 0.76 mm
02:38 19.2 °C 18.8 °C 1007 hPa SW 0.3 km/h 5.6 km/h 98 % 0.76 mm
02:43 19.1 °C 18.6 °C 1007 hPa Calm     97 % 0.76 mm
02:48 19.1 °C 18.6 °C 1007 hPa South 0.2 km/h 1.6 km/h 97 % 0.51 mm
02:54 19.1 °C 18.6 °C 1006.7 hPa South 0.2 km/h 1.9 km/h 97 % 0.76 mm
02:59 19 °C 18.5 °C 1006.7 hPa SSE 0.8 km/h 5.6 km/h 97 % 0.76 mm
03:04 19 °C 18.5 °C 1006.7 hPa Calm     97 % 0.51 mm
03:09 18.9 °C 18.4 °C 1006.3 hPa Calm   1.9 km/h 97 % 0.51 mm
03:14 18.9 °C 18.6 °C 1006.7 hPa Calm     98 % 0.51 mm
03:19 18.9 °C 18.6 °C 1006.7 hPa Calm   1.9 km/h 98 % 0.76 mm
03:24 18.9 °C 18.6 °C 1006.7 hPa Calm     98 % 0.51 mm
03:29 18.9 °C 18.6 °C 1006.3 hPa Calm     98 % 0.51 mm
03:34 18.8 °C 18.5 °C 1006 hPa SSE 0.2 km/h 1.9 km/h 98 % 0.51 mm
03:39 18.8 °C 18.5 °C 1006 hPa WSW 1.4 km/h 4.8 km/h 98 % 0.51 mm
03:44 18.8 °C 18.4 °C 1006 hPa Calm     98 % 0.51 mm
03:49 18.8 °C 18.3 °C 1006 hPa Calm     97 % 0.25 mm
03:54 18.7 °C 18.2 °C 1006 hPa Calm     97 % 0.51 mm
03:59 18.7 °C 18.2 °C 1005.6 hPa WSW 0.5 km/h 3.7 km/h 97 % 0.51 mm
04:04 18.6 °C 18.1 °C 1005.6 hPa Calm     97 % 0.51 mm
04:09 18.6 °C 18.1 °C 1005.6 hPa Calm   1.9 km/h 97 % 0.51 mm
04:14 18.5 °C 18 °C 1005.3 hPa Calm     97 % 0.51 mm
04:20 18.4 °C 17.9 °C 1005.3 hPa Calm     97 % 0.25 mm
04:25 18.4 °C 17.9 °C 1005.6 hPa Calm     97 % 0.25 mm
04:30 18.4 °C 17.9 °C 1005.3 hPa Calm     97 % 0.25 mm
04:35 18.3 °C 17.8 °C 1005.6 hPa Calm     97 % 0.25 mm
04:40 18.3 °C 17.8 °C 1005.6 hPa Calm     97 % 0.51 mm
04:45 18.3 °C 17.8 °C 1006 hPa SW 0.2 km/h 1.6 km/h 97 % 0.51 mm
04:50 18.3 °C 17.8 °C 1006 hPa Calm   1.9 km/h 97 % 0.51 mm
04:55 18.2 °C 17.7 °C 1006 hPa Calm     97 % 0.25 mm
05:00 18.2 °C 17.7 °C 1006 hPa Calm     97 % 0.25 mm
05:05 18.2 °C 17.7 °C 1006 hPa SW 0.3 km/h 3.7 km/h 97 % 0.25 mm
05:10 18.2 °C 17.7 °C 1006 hPa Calm     97 % 0.25 mm
05:15 18.1 °C 17.6 °C 1006 hPa SW 0.2 km/h 1.6 km/h 97 % 0.25 mm
05:20 18.1 °C 17.6 °C 1006 hPa Calm   1.9 km/h 97 % 0.25 mm
05:25 18.1 °C 17.6 °C 1006 hPa SW 1 km/h 5.6 km/h 97 % 0.25 mm
05:30 18 °C 17.5 °C 1006 hPa WSW 1.3 km/h 3.7 km/h 97 % 0.25 mm
05:35 18 °C 17.5 °C 1006.3 hPa WSW 0.6 km/h 3.7 km/h 97 % 0.25 mm
05:41 17.9 °C 17.4 °C 1006 hPa Calm   3.2 km/h 97 % 0 mm
05:46 17.9 °C 17.4 °C 1006 hPa Calm   3.2 km/h 97 % 0 mm
05:51 17.9 °C 17.4 °C 1006 hPa WSW 1.6 km/h 4.8 km/h 97 % 0 mm
05:56 17.9 °C 17.4 °C 1005.6 hPa Calm   3.2 km/h 97 % 0 mm
06:01 17.9 °C 17.4 °C 1006 hPa SW 3.4 km/h 6.4 km/h 97 % 0 mm
06:06 17.9 °C 17.4 °C 1006 hPa WSW 0.2 km/h 9.3 km/h 97 % 0 mm
06:11 17.9 °C 17.6 °C 1006 hPa WNW 4.7 km/h 7.4 km/h 98 % 0 mm
06:16 17.9 °C 17.6 °C 1006 hPa WSW 3.1 km/h 5.6 km/h 98 % 0 mm
06:21 17.9 °C 17.6 °C 1006 hPa Calm   1.9 km/h 98 % 0 mm
06:26 17.9 °C 17.6 °C 1006 hPa West 5.1 km/h 9.3 km/h 98 % 0 mm
06:31 17.9 °C 17.6 °C 1006 hPa West 3.5 km/h 5.6 km/h 98 % 0 mm
06:36 17.9 °C 17.6 °C 1006 hPa WNW 2.9 km/h 5.6 km/h 98 % 0 mm
06:41 17.9 °C 17.6 °C 1006 hPa WNW 0.8 km/h 5.6 km/h 98 % 0 mm
06:46 17.8 °C 17.5 °C 1006 hPa Calm   1.9 km/h 98 % 0 mm
06:51 17.8 °C 17.4 °C 1005.6 hPa Calm     98 % 0 mm
06:56 17.7 °C 17.4 °C 1006 hPa Calm     98 % 0 mm
07:01 17.7 °C 17.2 °C 1005.6 hPa Calm     97 % 0 mm
07:06 17.6 °C 17.1 °C 1005.6 hPa WSW 0.2 km/h 5.6 km/h 97 % 0 mm
07:12 17.4 °C 16.9 °C 1006 hPa Calm   1.9 km/h 97 % 0 mm
07:17 17.3 °C 16.8 °C 1006 hPa Calm     97 % 0 mm
07:22 17.2 °C 16.7 °C 1006.3 hPa Calm   3.7 km/h 97 % 0 mm
07:27 17.1 °C 16.6 °C 1006.3 hPa Calm   1.9 km/h 97 % 0 mm
07:32 16.9 °C 16.4 °C 1006 hPa West 4.2 km/h 5.6 km/h 97 % 0 mm
07:37 16.8 °C 16.3 °C 1006.3 hPa WSW 3.4 km/h 5.6 km/h 97 % 0 mm
07:42 16.7 °C 16.2 °C 1006.3 hPa West 1.4 km/h 4.8 km/h 97 % 0 mm
07:47 16.6 °C 16.1 °C 1006.3 hPa WNW 4.7 km/h 5.6 km/h 97 % 0 mm
07:52 16.4 °C 15.7 °C 1006.3 hPa West 2.9 km/h 5.6 km/h 96 % 0 mm
07:57 16.3 °C 15.8 °C 1006.3 hPa West 0.2 km/h 1.9 km/h 97 % 0 mm
08:03 16.2 °C 15.7 °C 1006.3 hPa West 0.3 km/h 3.7 km/h 97 % 0 mm
08:08 16.1 °C 15.5 °C 1006.3 hPa West 0.3 km/h 1.9 km/h 96 % 0 mm
08:13 16 °C 15.4 °C 1006.3 hPa West 0.3 km/h 3.7 km/h 96 % 0 mm
08:18 15.9 °C 15.4 °C 1006.3 hPa Calm     97 % 0 mm
08:23 15.8 °C 15.3 °C 1006.3 hPa Calm     97 % 0 mm
08:28 15.8 °C 15.2 °C 1006.7 hPa Calm     96 % 0 mm
08:33 15.7 °C 15.1 °C 1006.7 hPa Calm     96 % 0 mm
08:38 15.6 °C 15 °C 1006.7 hPa Calm     96 % 0 mm
08:43 15.6 °C 15.1 °C 1006.7 hPa Calm     97 % 0 mm
08:48 15.5 °C 14.9 °C 1006.7 hPa Calm     96 % 0 mm
08:53 15.4 °C 14.8 °C 1006.7 hPa West 0.3 km/h 1.9 km/h 96 % 0 mm
08:58 15.4 °C 14.8 °C 1006.7 hPa Calm   1.9 km/h 96 % 0 mm
09:03 15.4 °C 14.9 °C 1006.7 hPa Calm   1.9 km/h 97 % 0 mm
09:08 15.3 °C 14.8 °C 1006.7 hPa Calm     97 % 0 mm
09:13 15.3 °C 14.8 °C 1006.7 hPa Calm     97 % 0 mm
09:19 15.3 °C 14.8 °C 1006.3 hPa Calm     97 % 0 mm
09:24 15.3 °C 14.8 °C 1006.3 hPa West 0.2 km/h   97 % 0 mm
09:29 15.4 °C 14.9 °C 1006.3 hPa West 0.2 km/h 1.9 km/h 97 % 0 mm
09:34 15.4 °C 14.9 °C 1006.3 hPa West 0.3 km/h 3.7 km/h 97 % 0 mm
09:39 15.5 °C 15 °C 1006.3 hPa Calm     97 % 0 mm
09:44 15.6 °C 15.1 °C 1006.3 hPa Calm     97 % 0 mm
09:49 15.6 °C 15.1 °C 1006.3 hPa West 0.2 km/h 1.9 km/h 97 % 0 mm
09:54 15.7 °C 15.2 °C 1006.3 hPa Calm   3.7 km/h 97 % 0 mm
09:59 15.7 °C 15.2 °C 1006.3 hPa Calm     97 % 0 mm
10:04 15.8 °C 15.3 °C 1006 hPa WSW 0.6 km/h 3.7 km/h 97 % 0 mm
10:09 15.8 °C 15.3 °C 1006 hPa West 0.2 km/h 1.9 km/h 97 % 0 mm
10:14 15.8 °C 15.3 °C 1006 hPa WSW 1 km/h 5.6 km/h 97 % 0 mm
10:19 15.9 °C 15.4 °C 1006 hPa Calm   1.9 km/h 97 % 0 mm
10:24 15.9 °C 15.4 °C 1006 hPa WSW 1.6 km/h 4.8 km/h 97 % 0 mm
10:29 15.9 °C 15.4 °C 1006.3 hPa WSW 0.8 km/h 3.7 km/h 97 % 0 mm
10:34 15.8 °C 15.3 °C 1006.3 hPa WSW 0.3 km/h 5.6 km/h 97 % 0 mm
10:39 15.8 °C 15.3 °C 1006.3 hPa WSW 4.7 km/h 9.3 km/h 97 % 0 mm
10:45 15.7 °C 15.2 °C 1006 hPa West 1.1 km/h 1.9 km/h 97 % 0 mm
10:50 15.7 °C 15.2 °C 1006.3 hPa West 5.8 km/h 6.4 km/h 97 % 0 mm
10:55 15.5 °C 14.9 °C 1006 hPa West 0.8 km/h 3.7 km/h 96 % 0 mm
11:05 15.4 °C 14.8 °C 1006.3 hPa Calm   5.6 km/h 96 % 0 mm
11:06 15.4 °C 14.8 °C 1006.3 hPa WSW 1 km/h 3.7 km/h 96 % 0 mm
11:11 15.4 °C 14.8 °C 1006 hPa West 1.9 km/h 5.6 km/h 96 % 0 mm
11:16 15.4 °C 14.8 °C 1006 hPa WSW 4.7 km/h 9.3 km/h 96 % 0 mm
11:21 15.3 °C 14.6 °C 1005.6 hPa NW 6.6 km/h 11.1 km/h 95 % 0 mm
11:26 15.3 °C 14.4 °C 1006 hPa WNW 3.4 km/h 9.3 km/h 94 % 0 mm
11:31 15.3 °C 14.2 °C 1006 hPa WNW 4 km/h 8 km/h 93 % 0 mm
11:36 15.3 °C 14.2 °C 1005.6 hPa West 5.5 km/h 5.6 km/h 93 % 0 mm
11:41 15.4 °C 14.3 °C 1005.6 hPa WNW 4.7 km/h 7.4 km/h 93 % 0 mm
11:46 15.4 °C 14 °C 1005.3 hPa WNW 1 km/h 5.6 km/h 91 % 0 mm
11:52 15.7 °C 14.2 °C 1005.3 hPa WNW 3.9 km/h 6.4 km/h 91 % 0 mm
11:57 15.9 °C 14.1 °C 1005.6 hPa SW 3.5 km/h 7.4 km/h 89 % 0 mm
12:02 16.2 °C 14.2 °C 1006 hPa WNW 3.7 km/h 8 km/h 88 % 0 mm
12:07 16.4 °C 14.1 °C 1005.6 hPa West 4.7 km/h 9.3 km/h 86 % 0 mm
12:12 16.7 °C 13.9 °C 1006 hPa SW 8.9 km/h 18.5 km/h 84 % 0 mm
12:17 16.8 °C 13.9 °C 1005.6 hPa SW 4.2 km/h 9.3 km/h 83 % 0 mm
12:22 16.9 °C 14.2 °C 1005.6 hPa WSW 1.3 km/h 6.4 km/h 84 % 0 mm
12:27 16.9 °C 14.1 °C 1005.6 hPa NW 5 km/h 7.4 km/h 83 % 0 mm
12:37 16.9 °C 13.8 °C 1006 hPa West 2.4 km/h 7.4 km/h 82 % 0 mm
12:42 16.9 °C 13.7 °C 1006 hPa West 1.9 km/h 5.6 km/h 81 % 0 mm
12:47 16.9 °C 13.6 °C 1006.3 hPa West 1.1 km/h 5.6 km/h 81 % 0 mm
12:52 16.8 °C 13.7 °C 1006 hPa West 0.8 km/h 1.6 km/h 82 % 0 mm
12:57 16.8 °C 13.7 °C 1005.6 hPa Calm   3.7 km/h 82 % 0 mm
13:02 16.8 °C 13.9 °C 1005.3 hPa WSW 3.1 km/h 5.6 km/h 83 % 0 mm
13:07 16.7 °C 13.6 °C 1004.6 hPa NW 1.3 km/h 3.7 km/h 82 % 0 mm
13:18 16.7 °C 13.8 °C 1005.3 hPa West 4 km/h 7.4 km/h 83 % 0 mm
13:23 16.7 °C 13.6 °C 1005 hPa NW 0.3 km/h 5.6 km/h 82 % 0 mm
13:28 16.7 °C 13.8 °C 1005 hPa WSW 1.8 km/h 5.6 km/h 83 % 0 mm
13:33 16.7 °C 13.6 °C 1005 hPa West 2.1 km/h 5.6 km/h 82 % 0 mm
13:38 16.8 °C 13.7 °C 1004.6 hPa WNW 3.4 km/h 5.6 km/h 82 % 0 mm
13:43 16.8 °C 13.7 °C 1004.6 hPa WNW 3.9 km/h 7.4 km/h 82 % 0 mm
13:48 16.8 °C 13.6 °C 1004.6 hPa NW 2.4 km/h 5.6 km/h 81 % 0 mm
13:53 16.9 °C 13.4 °C 1005 hPa West 4.5 km/h 7.4 km/h 80 % 0 mm
13:58 16.9 °C 13.4 °C 1005 hPa WSW 4.3 km/h 7.4 km/h 80 % 0 mm
14:03 16.9 °C 13.3 °C 1005 hPa WNW 0.3 km/h 3.7 km/h 79 % 0 mm
14:08 17 °C 13.3 °C 1005 hPa WNW 4 km/h 8 km/h 79 % 0 mm
14:13 17 °C 13.1 °C 1005 hPa West 2.4 km/h 5.6 km/h 78 % 0 mm
14:18 17 °C 13.1 °C 1005 hPa WNW 2.1 km/h 8 km/h 78 % 0 mm
14:23 17 °C 13.3 °C 1005 hPa Calm   5.6 km/h 79 % 0 mm
14:28 17 °C 13.1 °C 1005 hPa West 1.6 km/h 5.6 km/h 78 % 0 mm
14:33 17 °C 13.3 °C 1005 hPa West 0.5 km/h 5.6 km/h 79 % 0 mm
14:38 17 °C 13.1 °C 1005 hPa WNW 2.4 km/h 5.6 km/h 78 % 0 mm
14:44 17 °C 13.3 °C 1004.6 hPa Calm   5.6 km/h 79 % 0 mm
14:49 17 °C 13.5 °C 1004.6 hPa WNW 1.6 km/h 5.6 km/h 80 % 0 mm
14:54 17 °C 13.5 °C 1004.6 hPa Calm     80 % 0 mm
14:59 17.1 °C 13.6 °C 1004.6 hPa WNW 0.5 km/h 3.2 km/h 80 % 0 mm
15:04 17.1 °C 13.4 °C 1004.6 hPa WNW 0.2 km/h 1.9 km/h 79 % 0 mm
15:09 17.1 °C 13.6 °C 1004.6 hPa Calm     80 % 0 mm
15:14 17.1 °C 13.8 °C 1004.6 hPa Calm     81 % 0 mm
15:19 17.2 °C 13.7 °C 1004.6 hPa WNW 0.2 km/h 1.9 km/h 80 % 0 mm
15:24 17.2 °C 13.5 °C 1005 hPa WNW 0.2 km/h 1.9 km/h 79 % 0 mm
15:29 17.2 °C 13.7 °C 1005 hPa WNW 0.2 km/h 1.9 km/h 80 % 0 mm
15:34 17.3 °C 14 °C 1005 hPa WNW 0.3 km/h 3.2 km/h 81 % 0 mm
15:39 17.3 °C 14.1 °C 1004.6 hPa Calm     81 % 0 mm
15:44 17.3 °C 14.1 °C 1004.6 hPa WNW 0.6 km/h 1.9 km/h 81 % 0 mm
15:49 17.4 °C 14.1 °C 1005 hPa Calm     81 % 0 mm
15:54 17.4 °C 14.1 °C 1004.6 hPa Calm     81 % 0 mm
16:00 17.4 °C 14.3 °C 1005 hPa Calm   1.9 km/h 82 % 0 mm
16:05 17.4 °C 14.3 °C 1004.3 hPa Calm     82 % 0 mm
16:10 17.4 °C 14.3 °C 1004.3 hPa WNW 0.2 km/h 1.9 km/h 82 % 0 mm
16:15 17.4 °C 14.3 °C 1004.3 hPa Calm     82 % 0 mm
16:20 17.3 °C 14.6 °C 1004.6 hPa Calm   1.9 km/h 84 % 0 mm
16:25 17.3 °C 14.6 °C 1004.6 hPa Calm     84 % 0 mm
16:30 17.3 °C 14.6 °C 1005 hPa Calm   1.9 km/h 84 % 0 mm
16:35 17.2 °C 14.7 °C 1005 hPa Calm     85 % 0 mm
16:40 17.2 °C 14.6 °C 1005 hPa WNW 1.6 km/h 3.7 km/h 85 % 0 mm
16:45 17.1 °C 14.7 °C 1005 hPa WNW 1.1 km/h 3.2 km/h 86 % 0 mm
16:50 17 °C 14.4 °C 1005 hPa Calm     85 % 0 mm
16:55 16.9 °C 14.3 °C 1004.6 hPa Calm     85 % 0 mm
17:00 16.8 °C 14.2 °C 1003.9 hPa Calm     85 % 0 mm
17:05 16.7 °C 14.4 °C 1004.6 hPa WNW 3.2 km/h 5.6 km/h 86 % 0 mm
17:10 16.7 °C 14.5 °C 1005 hPa West 3.9 km/h 5.6 km/h 87 % 0 mm
17:15 16.6 °C 14.4 °C 1005 hPa WSW 3.2 km/h 8 km/h 87 % 0 mm
17:20 16.4 °C 14.3 °C 1005 hPa West 1.6 km/h 8 km/h 87 % 0 mm
17:25 16.4 °C 14.2 °C 1004.3 hPa West 1.6 km/h 6.4 km/h 87 % 0 mm
17:30 16.3 °C 14.1 °C 1004.6 hPa West 1.6 km/h 8 km/h 87 % 0 mm
17:41 16.2 °C 14 °C 1004.6 hPa Calm   4.8 km/h 87 % 0 mm
17:45 16.1 °C 14.1 °C 1005 hPa West 1.6 km/h 8 km/h 88 % 0 mm
17:51 16 °C 14 °C 1004.6 hPa Calm   3.2 km/h 88 % 0 mm
17:55 15.9 °C 13.9 °C 1003.6 hPa NW 0.8 km/h 5.6 km/h 88 % 0 mm
18:01 15.8 °C 13.8 °C 1004.3 hPa NW 0.6 km/h 3.7 km/h 88 % 0 mm
18:06 15.8 °C 13.8 °C 1004.6 hPa NW 0.5 km/h 3.7 km/h 88 % 0 mm
18:11 15.7 °C 13.7 °C 1004.6 hPa West 2.6 km/h 5.6 km/h 88 % 0 mm
18:16 15.7 °C 13.7 °C 1004.6 hPa West 0.8 km/h 3.7 km/h 88 % 0 mm
18:21 15.6 °C 13.6 °C 1004.6 hPa Calm     88 % 0 mm
18:26 15.6 °C 13.6 °C 1004.3 hPa Calm     88 % 0 mm
18:31 15.5 °C 13.5 °C 1004.6 hPa Calm     88 % 0 mm
18:36 15.5 °C 13.5 °C 1003.9 hPa Calm     88 % 0 mm
18:41 15.5 °C 13.5 °C 1004.3 hPa Calm   1.9 km/h 88 % 0 mm
18:46 15.4 °C 13.7 °C 1004.3 hPa Calm   1.9 km/h 89 % 0 mm
18:51 15.4 °C 13.6 °C 1004.6 hPa West 0.3 km/h 1.6 km/h 89 % 0 mm
19:15 15.3 °C 13.7 °C 1005 hPa West 1.4 km/h 3.7 km/h 90 % 0 mm
19:20 15.3 °C 13.7 °C 1005 hPa Calm     90 % 0 mm
19:25 15.3 °C 13.8 °C 1004.6 hPa West 1.4 km/h 3.2 km/h 91 % 0 mm
19:30 15.2 °C 13.8 °C 1004.3 hPa Calm     91 % 0 mm
19:35 15.2 °C 13.8 °C 1004.3 hPa West 0.8 km/h 3.7 km/h 91 % 0 mm
19:40 15.2 °C 13.7 °C 1003.6 hPa Calm     91 % 0 mm
19:45 15.1 °C 13.7 °C 1003.6 hPa West 2.7 km/h 3.2 km/h 91 % 0 mm
19:50 15.1 °C 13.7 °C 1004.3 hPa WSW 0.5 km/h 5.6 km/h 91 % 0 mm
19:55 15.1 °C 13.6 °C 1004.6 hPa Calm     91 % 0 mm
20:01 15.1 °C 13.4 °C 1004.3 hPa Calm     90 % 0 mm
20:06 15.1 °C 13.7 °C 1005.3 hPa Calm   1.9 km/h 91 % 0 mm
20:11 15.1 °C 13.7 °C 1005.6 hPa West 0.5 km/h 3.7 km/h 91 % 0 mm
20:16 15.1 °C 13.7 °C 1004.6 hPa Calm     91 % 0 mm
20:21 15.2 °C 13.7 °C 1005.3 hPa Calm   1.9 km/h 91 % 0 mm
20:26 15.2 °C 13.7 °C 1004.6 hPa Calm     91 % 0 mm
20:31 15.2 °C 13.7 °C 1005 hPa Calm     91 % 0 mm
20:36 15.2 °C 13.7 °C 1004.6 hPa Calm     91 % 0 mm
20:41 15.2 °C 13.7 °C 1004.6 hPa Calm     91 % 0 mm
20:46 15.2 °C 13.7 °C 1005 hPa Calm   1.9 km/h 91 % 0 mm
20:51 15.2 °C 13.7 °C 1004.3 hPa West 0.2 km/h   91 % 0 mm
20:55 15.2 °C 13.7 °C 1004.6 hPa Calm   3.2 km/h 91 % 0 mm
21:05 15.1 °C 13.7 °C 1005 hPa Calm   4.8 km/h 91 % 0 mm
21:10 15.1 °C 13.6 °C 1005.3 hPa Calm   1.6 km/h 91 % 0 mm
21:15 15.1 °C 13.6 °C 1004.6 hPa Calm     91 % 0 mm
21:20 15 °C 13.7 °C 1004.6 hPa Calm     92 % 0 mm
21:25 15 °C 13.7 °C 1004.3 hPa Calm     92 % 0 mm
21:34 14.9 °C 13.7 °C 1004.3 hPa Calm   4.8 km/h 92 % 0 mm
21:39 14.9 °C 13.6 °C 1004.3 hPa Calm     92 % 0 mm
21:44 14.9 °C 13.6 °C 1004.6 hPa Calm     92 % 0 mm
21:49 14.8 °C 13.6 °C 1005 hPa Calm     92 % 0 mm
21:54 14.8 °C 13.6 °C 1005.3 hPa Calm     92 % 0 mm
21:59 14.8 °C 13.5 °C 1005.3 hPa Calm     92 % 0 mm
22:05 14.8 °C 13.5 °C 1005.3 hPa Calm     92 % 0 mm
22:10 14.8 °C 13.5 °C 1005 hPa West 0.2 km/h 1.9 km/h 92 % 0 mm
22:15 14.8 °C 13.5 °C 1005.3 hPa Calm   1.9 km/h 92 % 0 mm
22:20 14.7 °C 13.6 °C 1005 hPa West 0.2 km/h 1.9 km/h 93 % 0 mm
22:25 14.7 °C 13.6 °C 1005 hPa West 0.2 km/h 1.9 km/h 93 % 0 mm
22:30 14.7 °C 13.6 °C 1005.6 hPa West 0.3 km/h 1.9 km/h 93 % 0 mm
22:35 14.7 °C 13.6 °C 1005.3 hPa Calm     93 % 0 mm
22:40 14.7 °C 13.6 °C 1005 hPa West 0.3 km/h 1.6 km/h 93 % 0 mm
22:45 14.6 °C 13.5 °C 1005 hPa Calm     93 % 0 mm
22:50 14.6 °C 13.5 °C 1004.6 hPa Calm     93 % 0 mm
22:55 14.6 °C 13.4 °C 1005 hPa Calm   1.9 km/h 93 % 0 mm
23:00 14.6 °C 13.4 °C 1005 hPa West 0.5 km/h 3.7 km/h 93 % 0 mm
23:05 14.6 °C 13.4 °C 1004.6 hPa West 0.6 km/h 1.9 km/h 93 % 0 mm
23:10 14.5 °C 13.4 °C 1004.6 hPa Calm   1.9 km/h 93 % 0 mm
23:15 14.5 °C 13.4 °C 1004.3 hPa Calm     93 % 0 mm
23:20 14.5 °C 13.4 °C 1004.6 hPa Calm     93 % 0 mm
23:25 14.5 °C 13.4 °C 1003.9 hPa Calm     93 % 0 mm
23:31 14.5 °C 13.3 °C 1004.3 hPa Calm   1.6 km/h 93 % 0 mm
23:36 14.4 °C 13.3 °C 1004.3 hPa Calm   1.6 km/h 93 % 0 mm
23:41 14.4 °C 13.3 °C 1004.3 hPa West 1.4 km/h 1.6 km/h 93 % 0 mm
23:46 14.4 °C 13.3 °C 1004.3 hPa Calm   3.2 km/h 93 % 0 mm
23:51 14.4 °C 13.5 °C 1004.3 hPa Calm   1.6 km/h 94 % 0 mm
23:56 14.5 °C 13.6 °C 1003.9 hPa West 0.3 km/h   94 % 0 mm
Crab Meadow Weather
Compliments of Weather Underground - 3 mb

Script developed by  Jim McMurry - jmcmurry@mwt.net Adapted for the template by  Wim van der Kuil - Leuven-Template.eu

Weather Terms: Watch - A watch is used when the risk of a hazardous weather or hydrologic event has increased significantly, but its occurrence, location or timing is still uncertain. It is intended to provide enough lead time so those who need to set their plans in motion can do so. A watch means that hazardous weather is possible. People should have a plan of action in case a storm threatens and they should listen for later information and possible warnings especially when planning travel or outdoor activities.